TAM8067 SPJC-SBCG

Flight info

Callsign TAM8067
Flight time 3h 6m
Altitude 35000
Route KULIS UM415 VIR UM411 ATERU UZ42 IRIPI
Aircraft A320/M-SDE3FGHIRWY/LB1

Departure

Time 2026-04-22 02:05
Airport Jorge Chávez International Airport (SPJC)

Arrival

Time 2026-04-22 05:12
Airport Campo Grande Airport (SBCG)
Time Latitude Longitude Altitude Speed Heading
2026-04-22 01:42 -12.02356 -77.10934 106 ft 0 kts 65°
2026-04-22 01:56 -12.02360 -77.10944 105 ft 4 kts 64°
2026-04-22 01:57 -12.02372 -77.10968 103 ft 4 kts 63°
2026-04-22 01:57 -12.02385 -77.10992 103 ft 4 kts 57°
2026-04-22 01:57 -12.02402 -77.11013 104 ft 4 kts 28°
2026-04-22 01:57 -12.02423 -77.11017 104 ft 2 kts 335°
2026-04-22 01:58 -12.02424 -77.11016 104 ft 0 kts 334°
2026-04-22 01:59 -12.02420 -77.11018 104 ft 4 kts 330°
2026-04-22 01:59 -12.02369 -77.11114 102 ft 19 kts 292°
2026-04-22 02:00 -12.02278 -77.11174 100 ft 15 kts 333°
2026-04-22 02:00 -12.02181 -77.11225 100 ft 18 kts 335°
2026-04-22 02:00 -12.02067 -77.11281 96 ft 18 kts 332°
2026-04-22 02:00 -12.01956 -77.11335 94 ft 17 kts 334°
2026-04-22 02:01 -12.01849 -77.11390 90 ft 17 kts 335°
2026-04-22 02:01 -12.01743 -77.11441 88 ft 17 kts 332°
2026-04-22 02:01 -12.01641 -77.11491 87 ft 16 kts 335°
2026-04-22 02:01 -12.01543 -77.11543 86 ft 16 kts 329°
2026-04-22 02:02 -12.01444 -77.11588 82 ft 15 kts 339°
2026-04-22 02:02 -12.01352 -77.11635 82 ft 15 kts 330°
2026-04-22 02:02 -12.01258 -77.11681 75 ft 15 kts 339°
2026-04-22 02:02 -12.01166 -77.11723 73 ft 14 kts 334°
2026-04-22 02:03 -12.01078 -77.11770 71 ft 14 kts 335°
2026-04-22 02:03 -12.00989 -77.11811 66 ft 14 kts 332°
2026-04-22 02:03 -12.00904 -77.11854 69 ft 14 kts 336°
2026-04-22 02:03 -12.00818 -77.11893 64 ft 14 kts 330°
2026-04-22 02:04 -12.00688 -77.12014 60 ft 13 kts 266°
2026-04-22 02:04 -12.00740 -77.12095 59 ft 16 kts 208°
2026-04-22 02:04 -12.00936 -77.12052 60 ft 59 kts 154°
2026-04-22 02:05 -12.01548 -77.11749 72 ft 132 kts 154°
2026-04-22 02:05 -12.02537 -77.11277 248 ft 172 kts 158°
2026-04-22 02:05 -12.03610 -77.10787 1108 ft 167 kts 156°
2026-04-22 02:05 -12.04691 -77.10301 1858 ft 171 kts 158°
2026-04-22 02:06 -12.05815 -77.09814 2290 ft 181 kts 157°
2026-04-22 02:06 -12.07024 -77.09313 2688 ft 193 kts 158°
2026-04-22 02:06 -12.08333 -77.08792 3050 ft 212 kts 159°
2026-04-22 02:06 -12.09773 -77.08240 3491 ft 229 kts 159°
2026-04-22 02:07 -12.11311 -77.07672 4058 ft 241 kts 160°
2026-04-22 02:07 -12.12926 -77.07097 4694 ft 250 kts 160°
2026-04-22 02:07 -12.14600 -77.06522 5369 ft 257 kts 161°
2026-04-22 02:07 -12.16319 -77.05952 6088 ft 262 kts 161°
2026-04-22 02:08 -12.18077 -77.05390 6791 ft 266 kts 162°
2026-04-22 02:08 -12.19859 -77.04842 7497 ft 269 kts 163°
2026-04-22 02:08 -12.21660 -77.04308 8229 ft 271 kts 163°
2026-04-22 02:08 -12.23481 -77.03789 8971 ft 272 kts 165°
2026-04-22 02:09 -12.25316 -77.03285 9731 ft 274 kts 165°
2026-04-22 02:09 -12.27085 -77.02537 10339 ft 278 kts 148°
2026-04-22 02:09 -12.28542 -77.01231 10959 ft 281 kts 128°
2026-04-22 02:09 -12.29513 -76.99501 11607 ft 282 kts 113°
2026-04-22 02:10 -12.30333 -76.97677 12277 ft 282 kts 115°
2026-04-22 02:10 -12.31222 -76.95839 12595 ft 299 kts 118°
2026-04-22 02:10 -12.32352 -76.93961 12736 ft 321 kts 123°
2026-04-22 02:10 -12.33629 -76.92045 13183 ft 331 kts 123°
2026-04-22 02:11 -12.34948 -76.90073 13646 ft 339 kts 123°
2026-04-22 02:11 -12.36259 -76.88038 14129 ft 346 kts 122°
2026-04-22 02:11 -12.37117 -76.86654 14431 ft 350 kts 121°
2026-04-22 02:12 -12.41356 -76.79432 15495 ft 382 kts 120°
2026-04-22 02:12 -12.42721 -76.77068 15894 ft 388 kts 120°
2026-04-22 02:12 -12.44108 -76.74677 16300 ft 394 kts 120°
2026-04-22 02:13 -12.45526 -76.72238 16600 ft 402 kts 120°
2026-04-22 02:13 -12.46965 -76.69767 17031 ft 405 kts 120°
2026-04-22 02:13 -12.48411 -76.67283 17493 ft 408 kts 120°
2026-04-22 02:13 -12.49870 -76.64781 17979 ft 411 kts 120°
2026-04-22 02:14 -12.51339 -76.62260 18408 ft 413 kts 120°
2026-04-22 02:14 -12.52813 -76.59724 18779 ft 416 kts 120°
2026-04-22 02:14 -12.54294 -76.57173 19146 ft 418 kts 120°
2026-04-22 02:14 -12.55786 -76.54605 19531 ft 420 kts 120°
2026-04-22 02:15 -12.57286 -76.52026 19893 ft 423 kts 120°
2026-04-22 02:15 -12.58797 -76.49431 20301 ft 425 kts 120°
2026-04-22 02:15 -12.60311 -76.46836 20692 ft 426 kts 120°
2026-04-22 02:15 -12.61841 -76.44223 21068 ft 428 kts 121°
2026-04-22 02:16 -12.63379 -76.41598 21425 ft 430 kts 121°
2026-04-22 02:16 -12.64914 -76.38966 21788 ft 433 kts 120°
2026-04-22 02:16 -12.66457 -76.36310 22140 ft 435 kts 120°
2026-04-22 02:16 -12.68004 -76.33639 22534 ft 437 kts 120°
2026-04-22 02:17 -12.69542 -76.30985 22865 ft 439 kts 120°
2026-04-22 02:17 -12.71106 -76.28286 23176 ft 441 kts 120°
2026-04-22 02:17 -12.72675 -76.25574 23490 ft 444 kts 120°
2026-04-22 02:17 -12.74254 -76.22849 23802 ft 446 kts 120°
2026-04-22 02:18 -12.75840 -76.20115 24127 ft 448 kts 120°
2026-04-22 02:18 -12.77432 -76.17367 24384 ft 450 kts 120°
2026-04-22 02:18 -12.79029 -76.14590 24617 ft 453 kts 120°
2026-04-22 02:18 -12.80627 -76.11806 24893 ft 454 kts 120°
2026-04-22 02:19 -12.82236 -76.09012 25158 ft 456 kts 120°
2026-04-22 02:19 -12.83856 -76.06208 25444 ft 457 kts 120°
2026-04-22 02:19 -12.85478 -76.03404 25710 ft 459 kts 120°
2026-04-22 02:19 -12.87111 -76.00583 25969 ft 461 kts 120°
2026-04-22 02:20 -12.88747 -75.97759 26226 ft 463 kts 120°
2026-04-22 02:20 -12.90396 -75.94912 26481 ft 465 kts 120°
2026-04-22 02:20 -12.92043 -75.92063 26787 ft 466 kts 120°
2026-04-22 02:20 -12.93699 -75.89190 27045 ft 468 kts 120°
2026-04-22 02:21 -12.95356 -75.86307 27294 ft 470 kts 120°
2026-04-22 02:21 -12.97020 -75.83419 27510 ft 472 kts 120°
2026-04-22 02:21 -12.98697 -75.80517 27746 ft 473 kts 120°
2026-04-22 02:21 -13.00377 -75.77615 28030 ft 475 kts 120°
2026-04-22 02:22 -13.02065 -75.74697 28303 ft 475 kts 120°
2026-04-22 02:22 -13.03751 -75.71777 28544 ft 477 kts 120°
2026-04-22 02:22 -13.05437 -75.68848 28770 ft 478 kts 120°
2026-04-22 02:22 -13.07128 -75.65903 29003 ft 479 kts 120°
2026-04-22 02:23 -13.08825 -75.62956 29242 ft 481 kts 120°
2026-04-22 02:23 -13.10533 -75.59995 29405 ft 483 kts 120°
2026-04-22 02:23 -13.12245 -75.57024 29599 ft 485 kts 120°
2026-04-22 02:23 -13.13957 -75.54043 29898 ft 484 kts 120°
2026-04-22 02:24 -13.15668 -75.51060 30227 ft 483 kts 120°
2026-04-22 02:24 -13.17370 -75.48094 30534 ft 483 kts 120°
2026-04-22 02:24 -13.19081 -75.45119 30800 ft 482 kts 120°
2026-04-22 02:24 -13.20783 -75.42162 31074 ft 481 kts 119°
2026-04-22 02:25 -13.22483 -75.39208 31354 ft 480 kts 119°
2026-04-22 02:25 -13.24174 -75.36265 31636 ft 478 kts 119°
2026-04-22 02:25 -13.25859 -75.33325 31936 ft 478 kts 119°
2026-04-22 02:25 -13.27541 -75.30386 32199 ft 477 kts 118°
2026-04-22 02:26 -13.29220 -75.27446 32471 ft 477 kts 118°
2026-04-22 02:26 -13.30878 -75.24547 32713 ft 476 kts 118°
2026-04-22 02:26 -13.32556 -75.21620 32984 ft 476 kts 118°
2026-04-22 02:26 -13.34237 -75.18690 33264 ft 475 kts 118°
2026-04-22 02:27 -13.35914 -75.15768 33534 ft 475 kts 118°
2026-04-22 02:27 -13.37590 -75.12847 33805 ft 474 kts 118°
2026-04-22 02:27 -13.39261 -75.09927 34075 ft 474 kts 118°
2026-04-22 02:27 -13.40933 -75.07004 34341 ft 474 kts 118°
2026-04-22 02:28 -13.42602 -75.04087 34590 ft 473 kts 118°
2026-04-22 02:28 -13.44266 -75.01180 34842 ft 472 kts 118°
2026-04-22 02:28 -13.45927 -74.98272 35077 ft 471 kts 118°
2026-04-22 02:28 -13.47567 -74.95355 35228 ft 471 kts 115°
2026-04-22 02:29 -13.48936 -74.92313 35278 ft 469 kts 111°
2026-04-22 02:29 -13.51558 -74.86168 35280 ft 470 kts 111°
2026-04-22 02:30 -13.54201 -74.80023 35280 ft 470 kts 111°
2026-04-22 02:30 -13.56839 -74.73889 35275 ft 470 kts 111°
2026-04-22 02:31 -13.59458 -74.67724 35278 ft 470 kts 111°
2026-04-22 02:31 -13.62067 -74.61572 35258 ft 470 kts 111°
2026-04-22 02:32 -13.64685 -74.55424 35259 ft 469 kts 111°
2026-04-22 02:32 -13.67304 -74.49279 35238 ft 469 kts 111°
2026-04-22 02:33 -13.69479 -74.44175 35239 ft 469 kts 111°
2026-04-22 02:33 -13.72095 -74.38030 35248 ft 469 kts 111°
2026-04-22 02:34 -13.74711 -74.31884 35229 ft 469 kts 111°
2026-04-22 02:34 -13.77325 -74.25733 35229 ft 469 kts 111°
2026-04-22 02:35 -13.79929 -74.19585 35203 ft 469 kts 111°
2026-04-22 02:35 -13.82528 -74.13434 35202 ft 469 kts 111°
2026-04-22 02:36 -13.85131 -74.07279 35201 ft 469 kts 111°
2026-04-22 02:36 -13.87731 -74.01132 35198 ft 469 kts 111°
2026-04-22 02:37 -13.90347 -73.94979 35192 ft 470 kts 111°
2026-04-22 02:37 -13.92955 -73.88823 35171 ft 470 kts 111°
2026-04-22 02:38 -13.95560 -73.82646 35194 ft 471 kts 111°
2026-04-22 02:38 -13.98147 -73.76501 35179 ft 471 kts 111°
2026-04-22 02:39 -14.00773 -73.70267 35184 ft 471 kts 111°
2026-04-22 02:39 -14.03370 -73.64111 35183 ft 472 kts 111°
2026-04-22 02:40 -14.05979 -73.57915 35187 ft 472 kts 111°
2026-04-22 02:40 -14.08586 -73.51709 35212 ft 471 kts 111°
2026-04-22 02:41 -14.11193 -73.45508 35205 ft 471 kts 111°
2026-04-22 02:41 -14.13801 -73.39311 35204 ft 471 kts 111°
2026-04-22 02:42 -14.16399 -73.33117 35200 ft 471 kts 111°
2026-04-22 02:42 -14.18997 -73.26909 35218 ft 472 kts 111°
2026-04-22 02:43 -14.21601 -73.20696 35229 ft 472 kts 111°
2026-04-22 02:43 -14.24201 -73.14482 35235 ft 472 kts 111°
2026-04-22 02:44 -14.26800 -73.08268 35247 ft 472 kts 111°
2026-04-22 02:44 -14.29401 -73.02045 35247 ft 472 kts 111°
2026-04-22 02:45 -14.31998 -72.95820 35286 ft 473 kts 111°
2026-04-22 02:45 -14.34592 -72.89597 35289 ft 472 kts 111°
2026-04-22 02:46 -14.37193 -72.83356 35296 ft 473 kts 111°
2026-04-22 02:46 -14.39784 -72.77130 35304 ft 473 kts 111°
2026-04-22 02:47 -14.42363 -72.70934 35309 ft 473 kts 111°
2026-04-22 02:47 -14.44949 -72.64706 35303 ft 472 kts 111°
2026-04-22 02:48 -14.47532 -72.58476 35300 ft 472 kts 111°
2026-04-22 02:48 -14.50120 -72.52256 35288 ft 471 kts 112°
2026-04-22 02:49 -14.52719 -72.46043 35286 ft 471 kts 112°
2026-04-22 02:49 -14.55297 -72.39831 35323 ft 471 kts 111°
2026-04-22 02:50 -14.57861 -72.33611 35304 ft 471 kts 111°
2026-04-22 02:50 -14.60426 -72.27399 35304 ft 471 kts 111°
2026-04-22 02:51 -14.62999 -72.21179 35291 ft 470 kts 112°
2026-04-22 02:51 -14.65582 -72.14939 35321 ft 478 kts 112°
2026-04-22 02:52 -14.68205 -72.08579 35314 ft 483 kts 112°
2026-04-22 02:52 -14.70826 -72.02187 35312 ft 484 kts 111°
2026-04-22 02:53 -14.73463 -71.95784 35301 ft 484 kts 112°
2026-04-22 02:53 -14.76103 -71.89396 35300 ft 484 kts 112°
2026-04-22 02:54 -14.78738 -71.83002 35332 ft 484 kts 112°
2026-04-22 02:54 -14.81340 -71.76642 35334 ft 483 kts 111°
2026-04-22 02:55 -14.83952 -71.70245 35324 ft 483 kts 111°
2026-04-22 02:55 -14.86571 -71.63850 35321 ft 483 kts 111°
2026-04-22 02:56 -14.89194 -71.57456 35345 ft 483 kts 111°
2026-04-22 02:56 -14.91822 -71.51062 35309 ft 485 kts 111°
2026-04-22 02:57 -14.94452 -71.44629 35304 ft 486 kts 111°
2026-04-22 02:57 -14.97078 -71.38167 35306 ft 488 kts 111°
2026-04-22 02:58 -14.99712 -71.31689 35334 ft 489 kts 111°
2026-04-22 02:58 -15.02352 -71.25209 35334 ft 490 kts 111°
2026-04-22 02:59 -15.05006 -71.18706 35343 ft 490 kts 111°
2026-04-22 02:59 -15.07658 -71.12209 35339 ft 490 kts 111°
2026-04-22 03:00 -15.10303 -71.05702 35343 ft 490 kts 111°
2026-04-22 03:00 -15.12924 -70.99226 35361 ft 490 kts 111°
2026-04-22 03:01 -15.15545 -70.92718 35367 ft 490 kts 111°
2026-04-22 03:01 -15.18191 -70.86190 35331 ft 492 kts 111°
2026-04-22 03:02 -15.20845 -70.79648 35330 ft 493 kts 111°
2026-04-22 03:02 -15.23488 -70.73092 35340 ft 494 kts 111°
2026-04-22 03:03 -15.26126 -70.66524 35341 ft 494 kts 111°
2026-04-22 03:03 -15.28774 -70.59950 35306 ft 495 kts 111°
2026-04-22 03:04 -15.31426 -70.53375 35308 ft 495 kts 111°
2026-04-22 03:04 -15.34074 -70.46803 35301 ft 494 kts 111°
2026-04-22 03:05 -15.36717 -70.40228 35304 ft 494 kts 111°
2026-04-22 03:05 -15.39350 -70.33665 35303 ft 493 kts 111°
2026-04-22 03:06 -15.41984 -70.27096 35264 ft 493 kts 111°
2026-04-22 03:06 -15.44614 -70.20541 35285 ft 493 kts 111°
2026-04-22 03:07 -15.47231 -70.13981 35256 ft 491 kts 110°
2026-04-22 03:07 -15.49535 -70.07333 35258 ft 490 kts 106°
2026-04-22 03:08 -15.51602 -70.00614 35243 ft 489 kts 105°
2026-04-22 03:08 -15.53702 -69.93904 35243 ft 489 kts 107°
2026-04-22 03:09 -15.55884 -69.87221 35225 ft 489 kts 107°
2026-04-22 03:09 -15.58092 -69.80550 35226 ft 488 kts 107°
2026-04-22 03:10 -15.60279 -69.73891 35221 ft 488 kts 107°
2026-04-22 03:10 -15.62445 -69.67223 35221 ft 488 kts 107°
2026-04-22 03:11 -15.64610 -69.60555 35212 ft 488 kts 107°
2026-04-22 03:11 -15.66762 -69.53927 35212 ft 488 kts 107°
2026-04-22 03:12 -15.68922 -69.47254 35216 ft 488 kts 107°
2026-04-22 03:12 -15.72189 -69.37245 35221 ft 489 kts 107°
2026-04-22 03:13 -15.74291 -69.30533 35209 ft 489 kts 105°
2026-04-22 03:13 -15.76335 -69.23804 35218 ft 489 kts 105°
2026-04-22 03:14 -15.78387 -69.17072 35216 ft 489 kts 105°
2026-04-22 03:14 -15.80457 -69.10340 35220 ft 489 kts 105°
2026-04-22 03:15 -15.82529 -69.03603 35221 ft 488 kts 105°
2026-04-22 03:15 -15.84578 -68.96877 35220 ft 488 kts 105°
2026-04-22 03:16 -15.86627 -68.90158 35217 ft 488 kts 105°
2026-04-22 03:16 -15.88334 -68.84580 35231 ft 487 kts 105°
2026-04-22 03:17 -15.90394 -68.77876 35234 ft 487 kts 105°
2026-04-22 03:17 -15.92445 -68.71177 35245 ft 486 kts 105°
2026-04-22 03:18 -15.94486 -68.64487 35240 ft 486 kts 105°
2026-04-22 03:18 -15.96533 -68.57778 35245 ft 487 kts 105°
2026-04-22 03:19 -15.98573 -68.51071 35243 ft 487 kts 105°
2026-04-22 03:19 -16.00610 -68.44362 35244 ft 486 kts 105°
2026-04-22 03:20 -16.02656 -68.37671 35244 ft 485 kts 105°
2026-04-22 03:20 -16.04694 -68.31036 35243 ft 485 kts 105°
2026-04-22 03:21 -16.06744 -68.24356 35238 ft 485 kts 105°
2026-04-22 03:21 -16.08791 -68.17686 35206 ft 485 kts 106°
2026-04-22 03:22 -16.10838 -68.11003 35198 ft 484 kts 106°
2026-04-22 03:22 -16.12879 -68.04330 35201 ft 485 kts 106°
2026-04-22 03:23 -16.14928 -67.97645 35217 ft 485 kts 106°
2026-04-22 03:23 -16.16972 -67.90957 35201 ft 485 kts 106°
2026-04-22 03:24 -16.19023 -67.84258 35211 ft 486 kts 105°
2026-04-22 03:24 -16.21068 -67.77561 35188 ft 486 kts 105°
2026-04-22 03:25 -16.23105 -67.70860 35185 ft 485 kts 105°
2026-04-22 03:25 -16.25160 -67.64164 35194 ft 485 kts 106°
2026-04-22 03:26 -16.27243 -67.57488 35193 ft 485 kts 106°
2026-04-22 03:26 -16.29331 -67.50797 35172 ft 486 kts 107°
2026-04-22 03:27 -16.31405 -67.44106 35164 ft 486 kts 106°
2026-04-22 03:27 -16.33472 -67.37390 35185 ft 487 kts 106°
2026-04-22 03:28 -16.35520 -67.30713 35188 ft 487 kts 106°
2026-04-22 03:28 -16.37590 -67.23991 35195 ft 488 kts 106°
2026-04-22 03:29 -16.39668 -67.17271 35192 ft 488 kts 106°
2026-04-22 03:29 -16.41749 -67.10523 35199 ft 489 kts 106°
2026-04-22 03:30 -16.43817 -67.03776 35230 ft 489 kts 106°
2026-04-22 03:30 -16.45886 -66.97025 35234 ft 489 kts 106°
2026-04-22 03:31 -16.47957 -66.90271 35235 ft 489 kts 106°
2026-04-22 03:31 -16.50022 -66.83510 35234 ft 490 kts 106°
2026-04-22 03:32 -16.52093 -66.76728 35257 ft 491 kts 106°
2026-04-22 03:32 -16.54159 -66.69954 35261 ft 490 kts 106°
2026-04-22 03:33 -16.56224 -66.63179 35259 ft 491 kts 105°
2026-04-22 03:33 -16.58289 -66.56402 35254 ft 491 kts 105°
2026-04-22 03:34 -16.60355 -66.49608 35253 ft 491 kts 105°
2026-04-22 03:34 -16.62409 -66.42827 35295 ft 491 kts 105°
2026-04-22 03:35 -16.64465 -66.36037 35283 ft 491 kts 105°
2026-04-22 03:35 -16.66531 -66.29250 35283 ft 491 kts 106°
2026-04-22 03:36 -16.68613 -66.22452 35246 ft 492 kts 106°
2026-04-22 03:36 -16.70687 -66.15652 35286 ft 492 kts 106°
2026-04-22 03:37 -16.72746 -66.08843 35249 ft 492 kts 105°
2026-04-22 03:37 -16.74810 -66.02025 35253 ft 493 kts 106°
2026-04-22 03:38 -16.76865 -65.95263 35217 ft 492 kts 106°
2026-04-22 03:38 -16.78928 -65.88450 35227 ft 491 kts 105°
2026-04-22 03:39 -16.80984 -65.81663 35227 ft 490 kts 105°
2026-04-22 03:39 -16.83029 -65.74885 35229 ft 489 kts 105°
2026-04-22 03:40 -16.85095 -65.68117 35183 ft 489 kts 106°
2026-04-22 03:40 -16.87210 -65.61374 35181 ft 489 kts 106°
2026-04-22 03:41 -16.89337 -65.54639 35185 ft 488 kts 106°
2026-04-22 03:41 -16.91448 -65.47894 35139 ft 489 kts 106°
2026-04-22 03:42 -16.93545 -65.41133 35136 ft 490 kts 106°
2026-04-22 03:42 -16.95636 -65.34352 35113 ft 490 kts 106°
2026-04-22 03:43 -16.97722 -65.27569 35118 ft 490 kts 106°
2026-04-22 03:43 -16.99814 -65.20784 35108 ft 490 kts 106°
2026-04-22 03:44 -17.01894 -65.14047 35114 ft 490 kts 106°
2026-04-22 03:44 -17.03992 -65.07225 35101 ft 490 kts 106°
2026-04-22 03:45 -17.06065 -65.00491 35104 ft 490 kts 106°
2026-04-22 03:45 -17.08147 -64.93716 35101 ft 490 kts 106°
2026-04-22 03:46 -17.10231 -64.86935 35104 ft 490 kts 105°
2026-04-22 03:46 -17.12307 -64.80158 35104 ft 490 kts 105°
2026-04-22 03:47 -17.14375 -64.73375 35105 ft 490 kts 105°
2026-04-22 03:47 -17.16443 -64.66594 35113 ft 490 kts 105°
2026-04-22 03:48 -17.18508 -64.59802 35096 ft 490 kts 105°
2026-04-22 03:48 -17.20585 -64.53011 35097 ft 490 kts 106°
2026-04-22 03:49 -17.22662 -64.46223 35085 ft 490 kts 105°
2026-04-22 03:49 -17.24740 -64.39435 35109 ft 490 kts 106°
2026-04-22 03:50 -17.26824 -64.32659 35090 ft 489 kts 106°
2026-04-22 03:50 -17.28909 -64.25886 35095 ft 489 kts 106°
2026-04-22 03:51 -17.31004 -64.19104 35082 ft 489 kts 106°
2026-04-22 03:51 -17.33075 -64.12338 35101 ft 489 kts 105°
2026-04-22 03:52 -17.35135 -64.05554 35076 ft 489 kts 105°
2026-04-22 03:52 -17.37204 -63.98763 35077 ft 489 kts 105°
2026-04-22 03:53 -17.39284 -63.91981 35065 ft 489 kts 105°
2026-04-22 03:53 -17.41355 -63.85191 35077 ft 489 kts 105°
2026-04-22 03:54 -17.43398 -63.78450 35076 ft 489 kts 105°
2026-04-22 03:54 -17.45453 -63.71612 35059 ft 489 kts 105°
2026-04-22 03:55 -17.47489 -63.64880 35066 ft 488 kts 105°
2026-04-22 03:55 -17.49552 -63.58109 35059 ft 488 kts 105°
2026-04-22 03:56 -17.51603 -63.51340 35071 ft 487 kts 105°
2026-04-22 03:56 -17.53649 -63.44567 35057 ft 487 kts 105°
2026-04-22 03:57 -17.55691 -63.37797 35059 ft 487 kts 105°
2026-04-22 03:57 -17.57731 -63.31025 35043 ft 487 kts 105°
2026-04-22 03:58 -17.59767 -63.24259 35038 ft 487 kts 105°
2026-04-22 03:58 -17.61803 -63.17478 35039 ft 487 kts 105°
2026-04-22 03:59 -17.63814 -63.10694 35040 ft 487 kts 105°
2026-04-22 03:59 -17.65686 -63.03866 35040 ft 488 kts 104°
2026-04-22 04:00 -17.67509 -62.97018 35038 ft 488 kts 104°
2026-04-22 04:00 -17.69362 -62.90213 35041 ft 488 kts 104°
2026-04-22 04:01 -17.71250 -62.83375 35038 ft 488 kts 104°
2026-04-22 04:01 -17.73127 -62.76540 35038 ft 488 kts 104°
2026-04-22 04:02 -17.74683 -62.70859 35042 ft 488 kts 104°
2026-04-22 04:02 -17.76557 -62.64015 35037 ft 488 kts 104°
2026-04-22 04:03 -17.78425 -62.57154 35036 ft 489 kts 104°
2026-04-22 04:03 -17.80293 -62.50291 35040 ft 489 kts 105°
2026-04-22 04:04 -17.82170 -62.43447 35038 ft 488 kts 105°
2026-04-22 04:04 -17.84049 -62.36601 35037 ft 488 kts 105°
2026-04-22 04:05 -17.85913 -62.29747 35036 ft 488 kts 104°
2026-04-22 04:05 -17.87769 -62.22885 35033 ft 488 kts 104°
2026-04-22 04:06 -17.89618 -62.16023 35035 ft 489 kts 105°
2026-04-22 04:06 -17.91473 -62.09152 35035 ft 489 kts 105°
2026-04-22 04:07 -17.93322 -62.02281 35033 ft 489 kts 105°
2026-04-22 04:07 -17.95177 -61.95412 35033 ft 490 kts 105°
2026-04-22 04:08 -17.97025 -61.88560 35025 ft 490 kts 105°
2026-04-22 04:08 -17.98904 -61.81634 35030 ft 490 kts 105°
2026-04-22 04:09 -18.00843 -61.74758 35031 ft 491 kts 105°
2026-04-22 04:09 -18.02798 -61.67896 35032 ft 490 kts 105°
2026-04-22 04:10 -18.04735 -61.61025 35032 ft 490 kts 105°
2026-04-22 04:10 -18.06644 -61.54198 35025 ft 490 kts 105°
2026-04-22 04:11 -18.08562 -61.47323 35022 ft 490 kts 105°
2026-04-22 04:11 -18.10476 -61.40457 35020 ft 490 kts 105°
2026-04-22 04:12 -18.12399 -61.33580 35012 ft 489 kts 105°
2026-04-22 04:12 -18.14309 -61.26724 35009 ft 489 kts 105°
2026-04-22 04:13 -18.16223 -61.19859 34999 ft 489 kts 105°
2026-04-22 04:13 -18.18131 -61.12987 34998 ft 490 kts 105°
2026-04-22 04:14 -18.20042 -61.06104 34995 ft 490 kts 105°
2026-04-22 04:14 -18.21948 -60.99218 34994 ft 490 kts 105°
2026-04-22 04:15 -18.23844 -60.92340 34995 ft 490 kts 105°
2026-04-22 04:15 -18.25744 -60.85450 35002 ft 490 kts 105°
2026-04-22 04:16 -18.28598 -60.75112 35005 ft 491 kts 105°
2026-04-22 04:17 -18.30481 -60.68255 35010 ft 491 kts 105°
2026-04-22 04:17 -18.32386 -60.61347 35015 ft 490 kts 106°
2026-04-22 04:18 -18.34275 -60.54454 35015 ft 490 kts 105°
2026-04-22 04:18 -18.36165 -60.47545 35015 ft 490 kts 105°
2026-04-22 04:19 -18.38046 -60.40645 35007 ft 490 kts 106°
2026-04-22 04:19 -18.39929 -60.33739 35004 ft 491 kts 106°
2026-04-22 04:20 -18.41817 -60.26834 35004 ft 491 kts 106°
2026-04-22 04:20 -18.43690 -60.19930 35003 ft 491 kts 105°
2026-04-22 04:21 -18.45560 -60.13017 34997 ft 491 kts 106°
2026-04-22 04:21 -18.47441 -60.06111 34997 ft 491 kts 106°
2026-04-22 04:22 -18.49319 -59.99197 34998 ft 491 kts 106°
2026-04-22 04:22 -18.51192 -59.92277 35002 ft 491 kts 106°
2026-04-22 04:23 -18.53056 -59.85357 35008 ft 490 kts 106°
2026-04-22 04:23 -18.54900 -59.78499 35010 ft 489 kts 106°
2026-04-22 04:24 -18.56758 -59.71610 35009 ft 489 kts 106°
2026-04-22 04:24 -18.58610 -59.64708 35009 ft 489 kts 106°
2026-04-22 04:25 -18.60463 -59.57816 35003 ft 489 kts 107°
2026-04-22 04:25 -18.62315 -59.50908 35002 ft 489 kts 106°
2026-04-22 04:26 -18.64162 -59.44002 34997 ft 489 kts 107°
2026-04-22 04:26 -18.66002 -59.37107 34995 ft 489 kts 106°
2026-04-22 04:27 -18.67835 -59.30188 34995 ft 489 kts 106°
2026-04-22 04:27 -18.69674 -59.23283 34990 ft 489 kts 106°
2026-04-22 04:28 -18.71515 -59.16379 34986 ft 489 kts 106°
2026-04-22 04:28 -18.73357 -59.09477 34982 ft 489 kts 106°
2026-04-22 04:29 -18.75185 -59.02561 34996 ft 489 kts 106°
2026-04-22 04:29 -18.77004 -58.95649 34999 ft 489 kts 106°
2026-04-22 04:30 -18.78833 -58.88749 34999 ft 488 kts 106°
2026-04-22 04:30 -18.80652 -58.81852 34998 ft 488 kts 106°
2026-04-22 04:31 -18.82455 -58.74998 34994 ft 487 kts 106°
2026-04-22 04:31 -18.84272 -58.68062 34989 ft 487 kts 106°
2026-04-22 04:32 -18.86090 -58.61166 34991 ft 487 kts 106°
2026-04-22 04:32 -18.87953 -58.54294 34981 ft 487 kts 106°
2026-04-22 04:33 -18.89843 -58.47414 34978 ft 488 kts 106°
2026-04-22 04:33 -18.91723 -58.40537 34979 ft 488 kts 106°
2026-04-22 04:34 -18.93588 -58.33646 34978 ft 488 kts 106°
2026-04-22 04:34 -18.95433 -58.26789 34978 ft 488 kts 106°
2026-04-22 04:35 -18.97314 -58.19891 34976 ft 488 kts 106°
2026-04-22 04:35 -18.99203 -58.13015 34980 ft 488 kts 106°
2026-04-22 04:36 -19.01086 -58.06130 34984 ft 487 kts 106°
2026-04-22 04:36 -19.02964 -57.99248 34981 ft 487 kts 106°
2026-04-22 04:37 -19.04831 -57.92358 34983 ft 487 kts 106°
2026-04-22 04:37 -19.06697 -57.85473 34981 ft 487 kts 106°
2026-04-22 04:38 -19.08592 -57.78599 34977 ft 487 kts 108°
2026-04-22 04:38 -19.10793 -57.71831 34976 ft 487 kts 110°
2026-04-22 04:39 -19.13159 -57.65119 34979 ft 487 kts 111°
2026-04-22 04:39 -19.15469 -57.58394 34985 ft 486 kts 110°
2026-04-22 04:40 -19.17691 -57.51641 34989 ft 486 kts 109°
2026-04-22 04:40 -19.19902 -57.44889 34982 ft 486 kts 110°
2026-04-22 04:41 -19.22127 -57.38194 34980 ft 485 kts 110°
2026-04-22 04:41 -19.24378 -57.31422 34988 ft 484 kts 110°
2026-04-22 04:42 -19.26599 -57.24712 34984 ft 483 kts 110°
2026-04-22 04:42 -19.28814 -57.17995 34986 ft 482 kts 110°
2026-04-22 04:43 -19.31024 -57.11292 34983 ft 482 kts 110°
2026-04-22 04:43 -19.33222 -57.04641 34976 ft 482 kts 110°
2026-04-22 04:44 -19.35521 -56.97982 34972 ft 481 kts 116°
2026-04-22 04:44 -19.38590 -56.91697 34971 ft 480 kts 118°
2026-04-22 04:45 -19.41679 -56.85423 34965 ft 481 kts 118°
2026-04-22 04:45 -19.44769 -56.79126 34962 ft 481 kts 118°
2026-04-22 04:46 -19.47859 -56.72819 34961 ft 482 kts 118°
2026-04-22 04:46 -19.50420 -56.67587 34961 ft 482 kts 118°
2026-04-22 04:47 -19.53502 -56.61281 34963 ft 482 kts 118°
2026-04-22 04:47 -19.56587 -56.54972 34962 ft 482 kts 118°
2026-04-22 04:48 -19.59665 -56.48658 34957 ft 482 kts 118°
2026-04-22 04:48 -19.62757 -56.42334 34948 ft 484 kts 118°
2026-04-22 04:49 -19.65853 -56.35987 34946 ft 485 kts 118°
2026-04-22 04:49 -19.68949 -56.29626 34949 ft 485 kts 117°
2026-04-22 04:50 -19.72036 -56.23254 34948 ft 486 kts 117°
2026-04-22 04:50 -19.75129 -56.16877 34951 ft 486 kts 117°
2026-04-22 04:51 -19.78228 -56.10486 34957 ft 486 kts 117°
2026-04-22 04:51 -19.81263 -56.04231 34928 ft 463 kts 118°
2026-04-22 04:51 -19.82705 -56.01250 34711 ft 444 kts 118°
2026-04-22 04:52 -19.84102 -55.98363 34105 ft 436 kts 118°
2026-04-22 04:52 -19.85478 -55.95518 33346 ft 430 kts 117°
2026-04-22 04:52 -19.86830 -55.92715 32671 ft 422 kts 117°
2026-04-22 04:52 -19.88151 -55.89962 31973 ft 415 kts 117°
2026-04-22 04:53 -19.89452 -55.87248 31281 ft 409 kts 117°
2026-04-22 04:53 -19.90735 -55.84570 30586 ft 404 kts 117°
2026-04-22 04:53 -19.91986 -55.81964 29914 ft 399 kts 117°
2026-04-22 04:53 -19.93258 -55.79323 29114 ft 394 kts 117°
2026-04-22 04:54 -19.94483 -55.76784 28345 ft 390 kts 117°
2026-04-22 04:54 -19.95733 -55.74194 27577 ft 386 kts 117°
2026-04-22 04:54 -19.96946 -55.71674 26853 ft 382 kts 117°
2026-04-22 04:54 -19.98132 -55.69204 26173 ft 377 kts 117°
2026-04-22 04:55 -19.99317 -55.66738 25508 ft 373 kts 117°
2026-04-22 04:55 -20.00491 -55.64295 24846 ft 369 kts 117°
2026-04-22 04:55 -20.01784 -55.61955 24195 ft 365 kts 126°
2026-04-22 04:55 -20.03353 -55.59861 23561 ft 360 kts 133°
2026-04-22 04:56 -20.05018 -55.57888 22810 ft 357 kts 133°
2026-04-22 04:56 -20.06667 -55.55927 22116 ft 353 kts 133°
2026-04-22 04:56 -20.08295 -55.53985 21452 ft 350 kts 133°
2026-04-22 04:56 -20.09902 -55.52065 20806 ft 346 kts 133°
2026-04-22 04:57 -20.11488 -55.50170 20208 ft 341 kts 133°
2026-04-22 04:57 -20.13057 -55.48295 19619 ft 337 kts 133°
2026-04-22 04:57 -20.14608 -55.46441 19049 ft 333 kts 133°
2026-04-22 04:57 -20.16140 -55.44608 18488 ft 330 kts 133°
2026-04-22 04:58 -20.17659 -55.42788 17646 ft 333 kts 133°
2026-04-22 04:58 -20.19186 -55.40956 17072 ft 328 kts 133°
2026-04-22 04:58 -20.20693 -55.39148 16738 ft 326 kts 133°
2026-04-22 04:58 -20.22200 -55.37343 16478 ft 327 kts 133°
2026-04-22 04:59 -20.23708 -55.35535 16079 ft 325 kts 131°
2026-04-22 04:59 -20.25064 -55.33595 15637 ft 328 kts 122°
2026-04-22 04:59 -20.26131 -55.31446 15324 ft 326 kts 116°
2026-04-22 04:59 -20.27107 -55.29295 15110 ft 320 kts 116°
2026-04-22 05:00 -20.28084 -55.27168 14830 ft 318 kts 116°
2026-04-22 05:00 -20.29057 -55.25066 14533 ft 316 kts 116°
2026-04-22 05:00 -20.30027 -55.22970 14235 ft 314 kts 116°
2026-04-22 05:00 -20.30989 -55.20887 13992 ft 311 kts 116°
2026-04-22 05:01 -20.31939 -55.18819 13671 ft 311 kts 116°
2026-04-22 05:01 -20.32887 -55.16746 13265 ft 311 kts 116°
2026-04-22 05:01 -20.33822 -55.14699 12855 ft 302 kts 116°
2026-04-22 05:01 -20.34732 -55.12707 12365 ft 296 kts 116°
2026-04-22 05:02 -20.35629 -55.10750 11876 ft 291 kts 116°
2026-04-22 05:02 -20.36510 -55.08828 11396 ft 286 kts 116°
2026-04-22 05:02 -20.37377 -55.06939 10918 ft 282 kts 116°
2026-04-22 05:02 -20.38229 -55.05080 10458 ft 277 kts 115°
2026-04-22 05:03 -20.39091 -55.03259 9999 ft 273 kts 120°
2026-04-22 05:03 -20.40199 -55.01641 9511 ft 269 kts 132°
2026-04-22 05:03 -20.41525 -55.00256 9016 ft 265 kts 135°
2026-04-22 05:03 -20.42849 -54.98910 8515 ft 261 kts 135°
2026-04-22 05:04 -20.44169 -54.97562 8067 ft 264 kts 135°
2026-04-22 05:04 -20.45470 -54.96232 7936 ft 254 kts 135°
2026-04-22 05:04 -20.46721 -54.94952 7817 ft 244 kts 135°
2026-04-22 05:04 -20.47920 -54.93725 7707 ft 234 kts 135°
2026-04-22 05:05 -20.49069 -54.92546 7582 ft 225 kts 134°
2026-04-22 05:05 -20.50178 -54.91409 7467 ft 216 kts 134°
2026-04-22 05:05 -20.51276 -54.90287 7062 ft 223 kts 134°
2026-04-22 05:05 -20.52421 -54.89115 6626 ft 233 kts 134°
2026-04-22 05:06 -20.53598 -54.87906 6379 ft 233 kts 134°
2026-04-22 05:06 -20.54699 -54.86687 6099 ft 232 kts 131°
2026-04-22 05:06 -20.55811 -54.85388 5746 ft 236 kts 130°
2026-04-22 05:06 -20.56919 -54.84077 5393 ft 238 kts 130°
2026-04-22 05:07 -20.58018 -54.82779 5224 ft 232 kts 130°
2026-04-22 05:07 -20.59002 -54.81490 5101 ft 222 kts 114°
2026-04-22 05:07 -20.59247 -54.79951 5019 ft 206 kts 79°
2026-04-22 05:07 -20.58616 -54.78625 4674 ft 202 kts 44°
2026-04-22 05:08 -20.57593 -54.77634 4325 ft 192 kts 43°
2026-04-22 05:08 -20.56635 -54.76704 4080 ft 179 kts 44°
2026-04-22 05:08 -20.55757 -54.75854 3843 ft 167 kts 44°
2026-04-22 05:08 -20.54917 -54.75042 3657 ft 153 kts 45°
2026-04-22 05:09 -20.54161 -54.74313 3462 ft 145 kts 45°
2026-04-22 05:09 -20.53423 -54.73599 3285 ft 142 kts 46°
2026-04-22 05:09 -20.52694 -54.72895 3106 ft 140 kts 46°
2026-04-22 05:09 -20.51976 -54.72201 2923 ft 138 kts 46°
2026-04-22 05:10 -20.51263 -54.71513 2758 ft 139 kts 46°
2026-04-22 05:10 -20.50549 -54.70823 2581 ft 138 kts 45°
2026-04-22 05:10 -20.49835 -54.70135 2401 ft 139 kts 43°
2026-04-22 05:10 -20.49116 -54.69443 2223 ft 139 kts 45°
2026-04-22 05:11 -20.48400 -54.68745 2032 ft 140 kts 43°
2026-04-22 05:11 -20.47674 -54.68054 1848 ft 137 kts 44°
2026-04-22 05:11 -20.47036 -54.67429 1838 ft 103 kts 42°
2026-04-22 05:11 -20.46631 -54.67041 1840 ft 54 kts 41°
2026-04-22 05:12 -20.46437 -54.66862 1837 ft 32 kts 41°
2026-04-22 05:12 -20.46272 -54.66703 1837 ft 32 kts 43°
2026-04-22 05:12 -20.46154 -54.66607 1838 ft 14 kts
2026-04-22 05:12 -20.46066 -54.66637 1839 ft 12 kts 341°
2026-04-22 05:13 -20.45990 -54.66668 1839 ft 11 kts 338°
2026-04-22 05:13 -20.45925 -54.66695 1839 ft 9 kts 340°
2026-04-22 05:13 -20.45867 -54.66718 1839 ft 9 kts 336°
2026-04-22 05:13 -20.45837 -54.66799 1839 ft 14 kts 268°
2026-04-22 05:14 -20.45843 -54.66872 1839 ft 7 kts 264°
2026-04-22 05:14 -20.45846 -54.66913 1839 ft 1 kts 264°
2026-04-22 05:14 -20.45842 -54.66920 1839 ft 4 kts 304°
2026-04-22 05:15 -20.45815 -54.66929 1839 ft 4 kts 353°
2026-04-22 05:15 -20.45795 -54.66932 1839 ft 3 kts 355°
2026-04-22 05:15 -20.45793 -54.66932 1839 ft 0 kts 355°